Time,TemperatureF,DewpointF,PressureIn,WindDirection,WindDirectionDegrees,WindSpeedMPH,WindSpeedGustMPH,Humidity,HourlyPrecipIn,Conditions,Clouds,dailyrainin,SoftwareType,DateUTC
2013-01-04 00:03:00,23.8,-9.0,30.16,SW,225,1.3,1.3,23,0.00,,,0.00,WUHU216HW,2013-01-04 08:03:00,
2013-01-04 00:08:00,23.6,-9.1,30.16,SW,225,0.0,1.6,23,0.00,,,0.00,WUHU216HW,2013-01-04 08:08:00,
2013-01-04 00:13:00,23.6,-9.1,30.16,WSW,248,1.1,1.6,23,0.00,,,0.00,WUHU216HW,2013-01-04 08:13:00,
2013-01-04 00:18:00,23.4,-9.3,30.16,WSW,248,0.4,1.1,23,0.00,,,0.00,WUHU216HW,2013-01-04 08:18:00,
2013-01-04 00:23:00,23.4,-9.3,30.16,WSW,248,0.4,1.1,23,0.00,,,0.00,WUHU216HW,2013-01-04 08:23:00,
2013-01-04 00:28:00,23.4,-9.3,30.16,WSW,248,0.4,1.1,23,0.00,,,0.00,WUHU216HW,2013-01-04 08:28:00,
2013-01-04 00:33:00,23.2,-9.4,30.16,WSW,248,0.4,1.1,23,0.00,,,0.00,WUHU216HW,2013-01-04 08:33:00,
2013-01-04 00:38:00,23.0,-9.5,30.16,West,270,1.3,1.3,23,0.00,,,0.00,WUHU216HW,2013-01-04 08:38:00,
2013-01-04 00:43:00,22.9,-9.7,30.16,WSW,248,1.1,1.3,23,0.00,,,0.00,WUHU216HW,2013-01-04 08:43:00,
2013-01-04 00:48:00,22.7,-9.9,30.16,WSW,248,1.1,1.3,23,0.00,,,0.00,WUHU216HW,2013-01-04 08:48:00,
2013-01-04 00:53:00,22.7,-9.9,30.16,WSW,248,0.9,1.1,23,0.00,,,0.00,WUHU216HW,2013-01-04 08:53:00,
2013-01-04 00:58:00,22.7,-9.9,30.16,WSW,248,0.7,1.1,23,0.00,,,0.00,WUHU216HW,2013-01-04 08:58:00,
2013-01-04 01:03:00,22.5,-10.1,30.16,WSW,248,0.0,1.1,23,0.00,,,0.00,WUHU216HW,2013-01-04 09:03:00,
2013-01-04 01:08:00,22.5,-10.1,30.16,WSW,248,1.1,1.1,23,0.00,,,0.00,WUHU216HW,2013-01-04 09:08:00,
2013-01-04 01:13:00,22.3,-10.3,30.16,WSW,248,2.0,2.0,23,0.00,,,0.00,WUHU216HW,2013-01-04 09:13:00,
2013-01-04 01:18:00,22.1,-9.5,30.16,WSW,248,1.8,2.5,24,0.00,,,0.00,WUHU216HW,2013-01-04 09:18:00,
2013-01-04 01:23:00,22.0,-9.7,30.16,WSW,248,1.6,2.5,24,0.00,,,0.00,WUHU216HW,2013-01-04 09:23:00,
2013-01-04 01:28:00,22.0,-9.7,30.16,WSW,248,0.0,2.2,24,0.00,,,0.00,WUHU216HW,2013-01-04 09:28:00,
2013-01-04 01:33:00,22.0,-9.7,30.16,SW,225,1.1,1.8,24,0.00,,,0.00,WUHU216HW,2013-01-04 09:33:00,
2013-01-04 01:38:00,22.0,-9.7,30.16,SW,225,0.7,1.1,24,0.00,,,0.00,WUHU216HW,2013-01-04 09:38:00,
2013-01-04 01:43:00,21.8,-9.9,30.16,West,270,0.7,1.1,24,0.00,,,0.00,WUHU216HW,2013-01-04 09:43:00,
2013-01-04 01:48:00,21.6,-10.1,30.16,WSW,248,1.1,1.3,24,0.00,,,0.00,WUHU216HW,2013-01-04 09:48:00,
2013-01-04 01:53:00,21.2,-10.3,30.16,West,270,0.7,1.3,24,0.00,,,0.00,WUHU216HW,2013-01-04 09:53:00,
2013-01-04 01:58:00,21.2,-10.3,30.16,WSW,248,1.6,1.6,24,0.00,,,0.00,WUHU216HW,2013-01-04 09:58:00,
2013-01-04 02:03:00,21.2,-10.3,30.16,WSW,248,1.1,1.8,24,0.00,,,0.00,WUHU216HW,2013-01-04 10:03:00,
2013-01-04 02:08:00,21.4,-10.2,30.16,WSW,248,1.1,1.8,24,0.00,,,0.00,WUHU216HW,2013-01-04 10:08:00,
2013-01-04 02:13:00,21.4,-10.2,30.16,SW,225,0.7,1.3,24,0.00,,,0.00,WUHU216HW,2013-01-04 10:13:00,
2013-01-04 02:18:00,21.6,-10.1,30.16,SW,225,1.1,1.3,24,0.00,,,0.00,WUHU216HW,2013-01-04 10:18:00,
2013-01-04 02:23:00,21.8,-10.7,30.17,West,270,1.1,1.6,23,0.00,,,0.00,WUHU216HW,2013-01-04 10:23:00,
2013-01-04 02:28:00,21.6,-10.9,30.17,WSW,248,1.1,1.6,23,0.00,,,0.00,WUHU216HW,2013-01-04 10:28:00,
2013-01-04 02:33:00,21.6,-10.9,30.16,WSW,248,1.8,1.8,23,0.00,,,0.00,WUHU216HW,2013-01-04 10:33:00,
2013-01-04 02:38:00,21.6,-10.1,30.16,SW,225,1.8,2.5,24,0.00,,,0.00,WUHU216HW,2013-01-04 10:38:00,
2013-01-04 02:43:00,21.4,-10.2,30.16,SW,225,1.8,2.5,24,0.00,,,0.00,WUHU216HW,2013-01-04 10:43:00,
2013-01-04 02:48:00,21.2,-10.3,30.17,SW,225,1.3,2.0,24,0.00,,,0.00,WUHU216HW,2013-01-04 10:48:00,
2013-01-04 02:53:00,21.2,-10.3,30.16,SW,225,1.6,2.0,24,0.00,,,0.00,WUHU216HW,2013-01-04 10:53:00,
2013-01-04 02:58:00,21.2,-10.3,30.16,SW,225,1.6,1.8,24,0.00,,,0.00,WUHU216HW,2013-01-04 10:58:00,
2013-01-04 03:03:00,21.1,-8.9,30.16,SSW,203,1.6,1.8,26,0.00,,,0.00,WUHU216HW,2013-01-04 11:03:00,
2013-01-04 03:08:00,21.1,-8.9,30.16,SW,225,1.8,2.0,26,0.00,,,0.00,WUHU216HW,2013-01-04 11:08:00,
2013-01-04 03:13:00,21.1,-8.9,30.16,SSW,203,1.3,2.2,26,0.00,,,0.00,WUHU216HW,2013-01-04 11:13:00,
2013-01-04 03:18:00,20.9,-8.2,30.16,SW,225,1.8,2.2,27,0.00,,,0.00,WUHU216HW,2013-01-04 11:18:00,
2013-01-04 03:23:00,20.9,-8.2,30.16,SW,225,1.8,2.2,27,0.00,,,0.00,WUHU216HW,2013-01-04 11:23:00,
2013-01-04 03:28:00,20.9,-8.2,30.16,SSW,203,1.6,2.2,27,0.00,,,0.00,WUHU216HW,2013-01-04 11:28:00,
2013-01-04 03:33:00,20.9,-8.2,30.16,SSW,203,1.1,2.0,27,0.00,,,0.00,WUHU216HW,2013-01-04 11:33:00,
2013-01-04 03:38:00,20.9,-8.2,30.16,SW,225,1.1,1.3,27,0.00,,,0.00,WUHU216HW,2013-01-04 11:38:00,
2013-01-04 03:43:00,21.1,-8.9,30.16,SW,225,1.3,1.6,26,0.00,,,0.00,WUHU216HW,2013-01-04 11:43:00,
2013-01-04 03:48:00,21.1,-8.9,30.16,SW,225,1.3,1.6,26,0.00,,,0.00,WUHU216HW,2013-01-04 11:48:00,
2013-01-04 03:53:00,21.1,-8.9,30.16,SSW,203,0.7,1.3,26,0.00,,,0.00,WUHU216HW,2013-01-04 11:53:00,
2013-01-04 03:58:00,21.2,-8.7,30.16,SSW,203,1.1,1.6,26,0.00,,,0.00,WUHU216HW,2013-01-04 11:58:00,
2013-01-04 04:03:00,21.2,-8.7,30.16,SW,225,1.1,1.6,26,0.00,,,0.00,WUHU216HW,2013-01-04 12:03:00,
2013-01-04 04:08:00,21.2,-8.7,30.16,SW,225,0.2,1.3,26,0.00,,,0.00,WUHU216HW,2013-01-04 12:08:00,
2013-01-04 04:13:00,21.2,-8.7,30.16,SW,225,0.0,1.1,26,0.00,,,0.00,WUHU216HW,2013-01-04 12:13:00,
2013-01-04 04:18:00,21.2,-9.5,30.16,SW,225,0.0,0.4,25,0.00,,,0.00,WUHU216HW,2013-01-04 12:18:00,
2013-01-04 04:23:00,21.2,-10.3,30.16,WSW,248,1.8,1.8,24,0.00,,,0.00,WUHU216HW,2013-01-04 12:23:00,
2013-01-04 04:28:00,21.2,-10.3,30.16,SW,225,1.6,1.8,24,0.00,,,0.00,WUHU216HW,2013-01-04 12:28:00,
2013-01-04 04:33:00,21.2,-9.5,30.16,SW,225,1.1,1.8,25,0.00,,,0.00,WUHU216HW,2013-01-04 12:33:00,
2013-01-04 04:38:00,20.9,-10.7,30.16,WSW,248,1.3,1.8,24,0.00,,,0.00,WUHU216HW,2013-01-04 12:38:00,
2013-01-04 04:43:00,20.7,-10.0,30.16,WSW,248,1.3,1.8,25,0.00,,,0.00,WUHU216HW,2013-01-04 12:43:00,
2013-01-04 04:48:00,20.7,-9.2,30.16,SW,225,1.6,2.0,26,0.00,,,0.00,WUHU216HW,2013-01-04 12:48:00,
2013-01-04 04:53:00,20.5,-9.4,30.16,SW,225,1.6,2.5,26,0.00,,,0.00,WUHU216HW,2013-01-04 12:53:00,
2013-01-04 04:58:00,20.5,-9.4,30.16,SW,225,2.0,2.5,26,0.00,,,0.00,WUHU216HW,2013-01-04 12:58:00,
2013-01-04 05:03:00,20.5,-9.4,30.16,SW,225,1.8,2.0,26,0.00,,,0.00,WUHU216HW,2013-01-04 13:03:00,
2013-01-04 05:08:00,20.5,-9.4,30.16,WSW,248,1.8,2.0,26,0.00,,,0.00,WUHU216HW,2013-01-04 13:08:00,
2013-01-04 05:13:00,20.3,-9.4,30.16,SW,225,1.8,2.0,26,0.00,,,0.00,WUHU216HW,2013-01-04 13:13:00,
2013-01-04 05:18:00,20.3,-9.4,30.16,SW,225,1.8,2.0,26,0.00,,,0.00,WUHU216HW,2013-01-04 13:18:00,
2013-01-04 05:23:00,20.3,-9.4,30.16,SW,225,1.3,2.0,26,0.00,,,0.00,WUHU216HW,2013-01-04 13:23:00,
2013-01-04 05:28:00,20.3,-9.4,30.16,SW,225,1.3,1.8,26,0.00,,,0.00,WUHU216HW,2013-01-04 13:28:00,
2013-01-04 05:33:00,20.3,-9.4,30.16,WSW,248,0.9,1.8,26,0.00,,,0.00,WUHU216HW,2013-01-04 13:33:00,
2013-01-04 05:38:00,20.3,-9.4,30.16,WSW,248,1.1,1.8,26,0.00,,,0.00,WUHU216HW,2013-01-04 13:38:00,
2013-01-04 05:43:00,20.3,-9.4,30.16,SW,225,1.1,1.3,26,0.00,,,0.00,WUHU216HW,2013-01-04 13:43:00,
2013-01-04 05:48:00,20.3,-9.4,30.16,WSW,248,1.3,1.6,26,0.00,,,0.00,WUHU216HW,2013-01-04 13:48:00,
2013-01-04 05:53:00,20.3,-9.4,30.16,WSW,248,0.4,1.8,26,0.00,,,0.00,WUHU216HW,2013-01-04 13:53:00,
2013-01-04 05:58:00,20.3,-10.3,30.16,WSW,248,1.1,1.8,25,0.00,,,0.00,WUHU216HW,2013-01-04 13:58:00,
2013-01-04 06:03:00,20.5,-11.0,30.16,WSW,248,1.1,1.3,24,0.00,,,0.00,WUHU216HW,2013-01-04 14:03:00,
2013-01-04 06:08:00,20.7,-10.8,30.16,SW,225,1.1,1.3,24,0.00,,,0.00,WUHU216HW,2013-01-04 14:08:00,
2013-01-04 06:13:00,20.9,-10.7,30.16,SW,225,1.1,1.6,24,0.00,,,0.00,WUHU216HW,2013-01-04 14:13:00,
2013-01-04 06:18:00,20.7,-10.8,30.17,SW,225,1.8,1.8,24,0.00,,,0.00,WUHU216HW,2013-01-04 14:18:00,
2013-01-04 06:23:00,20.7,-10.8,30.17,WSW,248,1.3,1.8,24,0.00,,,0.00,WUHU216HW,2013-01-04 14:23:00,
2013-01-04 06:28:00,20.7,-10.8,30.17,WSW,248,1.1,1.8,24,0.00,,,0.00,WUHU216HW,2013-01-04 14:28:00,
2013-01-04 06:33:00,20.5,-11.0,30.17,WSW,248,1.1,1.3,24,0.00,,,0.00,WUHU216HW,2013-01-04 14:33:00,
2013-01-04 06:38:00,20.5,-11.0,30.17,WSW,248,1.6,1.8,24,0.00,,,0.00,WUHU216HW,2013-01-04 14:38:00,
2013-01-04 06:43:00,20.5,-11.0,30.17,SW,225,2.2,2.5,24,0.00,,,0.00,WUHU216HW,2013-01-04 14:43:00,
2013-01-04 06:48:00,20.5,-10.2,30.17,SW,225,2.0,2.5,25,0.00,,,0.00,WUHU216HW,2013-01-04 14:48:00,
2013-01-04 06:53:00,20.5,-9.4,30.18,WSW,248,2.0,2.5,26,0.00,,,0.00,WUHU216HW,2013-01-04 14:53:00,
2013-01-04 06:58:00,20.3,-9.4,30.17,SW,225,2.0,2.5,26,0.00,,,0.00,WUHU216HW,2013-01-04 14:58:00,
2013-01-04 07:03:00,20.2,-9.6,30.17,SW,225,2.2,2.5,26,0.00,,,0.00,WUHU216HW,2013-01-04 15:03:00,
2013-01-04 07:08:00,20.2,-9.6,30.17,SW,225,1.8,2.5,26,0.00,,,0.00,WUHU216HW,2013-01-04 15:08:00,
2013-01-04 07:13:00,20.2,-9.6,30.17,WSW,248,1.8,2.2,26,0.00,,,0.00,WUHU216HW,2013-01-04 15:13:00,
2013-01-04 07:18:00,20.2,-9.6,30.17,WSW,248,1.6,1.8,26,0.00,,,0.00,WUHU216HW,2013-01-04 15:18:00,
2013-01-04 07:23:00,20.3,-9.4,30.17,SW,225,1.1,1.8,26,0.00,,,0.00,WUHU216HW,2013-01-04 15:23:00,
2013-01-04 07:28:00,20.5,-9.4,30.18,SW,225,0.4,1.8,26,0.00,,,0.00,WUHU216HW,2013-01-04 15:28:00,
2013-01-04 07:33:00,20.9,-10.7,30.18,WSW,248,0.7,1.3,24,0.00,,,0.00,WUHU216HW,2013-01-04 15:33:00,
2013-01-04 07:38:00,21.1,-10.5,30.18,WSW,248,0.7,1.1,24,0.00,,,0.00,WUHU216HW,2013-01-04 15:38:00,
2013-01-04 07:43:00,21.2,-10.3,30.18,WSW,248,1.1,1.3,24,0.00,,,0.00,WUHU216HW,2013-01-04 15:43:00,
2013-01-04 07:48:00,21.6,-10.1,30.19,SW,225,0.9,1.6,24,0.00,,,0.00,WUHU216HW,2013-01-04 15:48:00,
2013-01-04 07:53:00,22.1,-9.5,30.19,SSW,203,0.0,1.6,24,0.00,,,0.00,WUHU216HW,2013-01-04 15:53:00,
2013-01-04 07:58:00,22.7,-9.1,30.19,SSW,203,0.2,0.4,24,0.00,,,0.00,WUHU216HW,2013-01-04 15:58:00,
2013-01-04 08:03:00,23.0,-8.7,30.19,SSW,203,0.0,0.2,24,0.00,,,0.00,WUHU216HW,2013-01-04 16:03:00,
2013-01-04 08:08:00,23.4,-9.3,30.19,SSW,203,0.2,0.4,23,0.00,,,0.00,WUHU216HW,2013-01-04 16:08:00,
2013-01-04 08:13:00,24.1,-8.6,30.19,SE,135,0.0,1.1,23,0.00,,,0.00,WUHU216HW,2013-01-04 16:13:00,
2013-01-04 08:18:00,24.8,-8.1,30.19,ESE,113,1.3,1.6,23,0.00,,,0.00,WUHU216HW,2013-01-04 16:18:00,
2013-01-04 08:23:00,25.7,-8.1,30.19,ESE,113,1.3,1.6,22,0.00,,,0.00,WUHU216HW,2013-01-04 16:23:00,
2013-01-04 08:28:00,27.0,-7.9,30.19,ESE,113,0.9,1.6,21,0.00,,,0.00,WUHU216HW,2013-01-04 16:28:00,
2013-01-04 08:33:00,28.4,-7.6,30.19,ESE,113,1.3,1.8,20,0.00,,,0.00,WUHU216HW,2013-01-04 16:33:00,
2013-01-04 08:38:00,29.9,-6.4,30.20,ESE,113,0.9,1.8,20,0.00,,,0.00,WUHU216HW,2013-01-04 16:38:00,
2013-01-04 08:43:00,30.6,-7.2,30.20,East,90,0.7,1.6,19,0.00,,,0.00,WUHU216HW,2013-01-04 16:43:00,
2013-01-04 08:48:00,31.5,-7.7,30.20,East,90,0.9,1.8,18,0.00,,,0.00,WUHU216HW,2013-01-04 16:48:00,
2013-01-04 08:53:00,32.2,-8.5,30.20,ESE,113,1.1,2.0,17,0.00,,,0.00,WUHU216HW,2013-01-04 16:53:00,
2013-01-04 08:58:00,32.9,-7.9,30.20,East,90,0.7,2.0,17,0.00,,,0.00,WUHU216HW,2013-01-04 16:58:00,
2013-01-04 09:03:00,33.5,-7.6,30.20,East,90,2.5,2.5,17,0.00,,,0.00,WUHU216HW,2013-01-04 17:03:00,
2013-01-04 09:08:00,34.2,-6.9,30.21,ESE,113,1.1,2.5,17,0.00,,,0.00,WUHU216HW,2013-01-04 17:08:00,
2013-01-04 09:13:00,34.9,-7.7,30.21,East,90,1.6,2.5,16,0.00,,,0.00,WUHU216HW,2013-01-04 17:13:00,
2013-01-04 09:18:00,35.5,-7.3,30.21,East,90,0.4,2.5,16,0.00,,,0.00,WUHU216HW,2013-01-04 17:18:00,
2013-01-04 09:23:00,35.8,-7.0,30.21,East,90,0.4,2.5,16,0.00,,,0.00,WUHU216HW,2013-01-04 17:23:00,
2013-01-04 09:28:00,36.4,-6.6,30.21,East,90,1.1,2.5,16,0.00,,,0.00,WUHU216HW,2013-01-04 17:28:00,
2013-01-04 09:33:00,36.7,-6.3,30.21,ESE,113,0.4,2.9,16,0.00,,,0.00,WUHU216HW,2013-01-04 17:33:00,
2013-01-04 09:38:00,37.1,-5.9,30.21,East,90,1.3,2.9,16,0.00,,,0.00,WUHU216HW,2013-01-04 17:38:00,
2013-01-04 09:43:00,37.4,-5.7,30.21,ESE,113,1.1,1.8,16,0.00,,,0.00,WUHU216HW,2013-01-04 17:43:00,
2013-01-04 09:48:00,38.0,-5.2,30.21,ESE,113,0.9,2.2,16,0.00,,,0.00,WUHU216HW,2013-01-04 17:48:00,
2013-01-04 09:53:00,38.3,-4.9,30.21,East,90,2.0,2.2,16,0.00,,,0.00,WUHU216HW,2013-01-04 17:53:00,
2013-01-04 09:58:00,38.3,-6.4,30.21,East,90,0.2,2.0,15,0.00,,,0.00,WUHU216HW,2013-01-04 17:58:00,
2013-01-04 10:03:00,38.7,-6.1,30.21,East,90,1.6,2.5,15,0.00,,,0.00,WUHU216HW,2013-01-04 18:03:00,
2013-01-04 10:08:00,38.9,-5.9,30.21,East,90,0.2,2.5,15,0.00,,,0.00,WUHU216HW,2013-01-04 18:08:00,
2013-01-04 10:13:00,39.2,-5.7,30.21,East,90,1.3,1.8,15,0.00,,,0.00,WUHU216HW,2013-01-04 18:13:00,
2013-01-04 10:18:00,39.6,-5.4,30.21,ESE,113,1.1,1.8,15,0.00,,,0.00,WUHU216HW,2013-01-04 18:18:00,
2013-01-04 10:23:00,39.8,-5.2,30.21,East,90,1.1,2.9,15,0.00,,,0.00,WUHU216HW,2013-01-04 18:23:00,
2013-01-04 10:28:00,40.1,-4.8,30.21,ESE,113,1.6,2.9,15,0.00,,,0.00,WUHU216HW,2013-01-04 18:28:00,
2013-01-04 10:33:00,40.5,-4.6,30.21,SE,135,1.1,1.8,15,0.00,,,0.00,WUHU216HW,2013-01-04 18:33:00,
2013-01-04 10:38:00,40.9,-4.3,30.21,ESE,113,1.3,1.8,15,0.00,,,0.00,WUHU216HW,2013-01-04 18:38:00,
2013-01-04 10:43:00,41.2,-2.5,30.21,East,90,0.7,3.6,16,0.00,,,0.00,WUHU216HW,2013-01-04 18:43:00,
2013-01-04 10:48:00,41.4,-2.4,30.21,East,90,2.0,3.6,16,0.00,,,0.00,WUHU216HW,2013-01-04 18:48:00,
2013-01-04 10:53:00,41.8,-2.2,30.21,ESE,113,1.8,3.1,16,0.00,,,0.00,WUHU216HW,2013-01-04 18:53:00,
2013-01-04 10:58:00,42.3,-3.2,30.20,East,90,1.8,2.9,15,0.00,,,0.00,WUHU216HW,2013-01-04 18:58:00,
2013-01-04 11:03:00,42.7,-3.0,30.20,ESE,113,1.8,4.5,15,0.00,,,0.00,WUHU216HW,2013-01-04 19:03:00,
2013-01-04 11:08:00,42.8,-2.8,30.19,ESE,113,0.7,4.5,15,0.00,,,0.00,WUHU216HW,2013-01-04 19:08:00,
2013-01-04 11:13:00,43.0,-2.6,30.19,East,90,0.9,3.4,15,0.00,,,0.00,WUHU216HW,2013-01-04 19:13:00,
2013-01-04 11:18:00,43.4,-2.3,30.19,ESE,113,0.9,4.5,15,0.00,,,0.00,WUHU216HW,2013-01-04 19:18:00,
2013-01-04 11:23:00,43.6,-3.6,30.19,ESE,113,0.4,4.5,14,0.00,,,0.00,WUHU216HW,2013-01-04 19:23:00,
2013-01-04 11:28:00,43.9,-3.3,30.19,East,90,1.8,3.4,14,0.00,,,0.00,WUHU216HW,2013-01-04 19:28:00,
2013-01-04 11:33:00,44.1,-3.1,30.18,ESE,113,1.1,4.0,14,0.00,,,0.00,WUHU216HW,2013-01-04 19:33:00,
2013-01-04 11:38:00,44.3,-3.1,30.18,ENE,68,0.9,4.0,14,0.00,,,0.00,WUHU216HW,2013-01-04 19:38:00,
2013-01-04 11:43:00,44.6,-2.7,30.18,ESE,113,1.1,4.0,14,0.00,,,0.00,WUHU216HW,2013-01-04 19:43:00,
2013-01-04 11:48:00,45.0,-2.4,30.18,East,90,5.6,5.6,14,0.00,,,0.00,WUHU216HW,2013-01-04 19:48:00,
2013-01-04 11:53:00,45.2,-2.3,30.17,East,90,0.9,5.6,14,0.00,,,0.00,WUHU216HW,2013-01-04 19:53:00,
2013-01-04 11:58:00,45.4,-2.2,30.17,East,90,3.6,4.0,14,0.00,,,0.00,WUHU216HW,2013-01-04 19:58:00,
2013-01-04 12:03:00,45.7,-1.9,30.16,East,90,3.4,5.1,14,0.00,,,0.00,WUHU216HW,2013-01-04 20:03:00,
2013-01-04 12:08:00,45.9,-3.2,30.16,East,90,2.5,5.1,13,0.00,,,0.00,WUHU216HW,2013-01-04 20:08:00,
2013-01-04 12:13:00,46.1,-1.6,30.16,East,90,0.2,4.7,14,0.00,,,0.00,WUHU216HW,2013-01-04 20:13:00,
2013-01-04 12:18:00,46.3,-1.4,30.16,East,90,2.5,4.7,14,0.00,,,0.00,WUHU216HW,2013-01-04 20:18:00,
2013-01-04 12:23:00,46.4,-1.2,30.16,NE,45,0.0,3.8,14,0.00,,,0.00,WUHU216HW,2013-01-04 20:23:00,
2013-01-04 12:28:00,46.4,-1.2,30.16,ENE,68,3.4,3.4,14,0.00,,,0.00,WUHU216HW,2013-01-04 20:28:00,
2013-01-04 12:33:00,46.6,-1.2,30.16,NNE,23,0.7,3.4,14,0.00,,,0.00,WUHU216HW,2013-01-04 20:33:00,
2013-01-04 12:38:00,46.8,-2.5,30.16,ENE,68,1.1,4.0,13,0.00,,,0.00,WUHU216HW,2013-01-04 20:38:00,
2013-01-04 12:43:00,46.8,-1.0,30.16,NNE,23,0.4,4.0,14,0.00,,,0.00,WUHU216HW,2013-01-04 20:43:00,
2013-01-04 12:48:00,47.0,-0.9,30.16,North,0,1.1,3.6,14,0.00,,,0.00,WUHU216HW,2013-01-04 20:48:00,
2013-01-04 12:53:00,47.2,-0.7,30.16,East,90,4.5,4.5,14,0.00,,,0.00,WUHU216HW,2013-01-04 20:53:00,
2013-01-04 12:58:00,47.0,-0.9,30.16,North,0,0.4,5.1,14,0.00,,,0.00,WUHU216HW,2013-01-04 20:58:00,
2013-01-04 13:03:00,47.2,-0.7,30.15,ESE,113,2.7,5.1,14,0.00,,,0.00,WUHU216HW,2013-01-04 21:03:00,
2013-01-04 13:08:00,47.2,-0.7,30.15,ESE,113,1.3,3.1,14,0.00,,,0.00,WUHU216HW,2013-01-04 21:08:00,
2013-01-04 13:13:00,47.2,0.7,30.15,East,90,1.8,4.9,15,0.00,,,0.00,WUHU216HW,2013-01-04 21:13:00,
2013-01-04 13:18:00,47.0,-0.9,30.15,East,90,1.1,5.6,14,0.00,,,0.00,WUHU216HW,2013-01-04 21:18:00,
2013-01-04 13:23:00,47.0,-0.9,30.16,NE,45,1.8,5.6,14,0.00,,,0.00,WUHU216HW,2013-01-04 21:23:00,
2013-01-04 13:28:00,46.4,-1.2,30.16,ESE,113,2.5,5.4,14,0.00,,,0.00,WUHU216HW,2013-01-04 21:28:00,
2013-01-04 13:33:00,46.3,-1.4,30.16,North,0,1.8,5.4,14,0.00,,,0.00,WUHU216HW,2013-01-04 21:33:00,
2013-01-04 13:38:00,46.1,-1.6,30.16,East,90,4.5,5.4,14,0.00,,,0.00,WUHU216HW,2013-01-04 21:38:00,
2013-01-04 13:43:00,45.7,-1.9,30.16,SE,135,1.8,4.5,14,0.00,,,0.00,WUHU216HW,2013-01-04 21:43:00,
2013-01-04 13:48:00,45.7,-1.9,30.16,ESE,113,1.1,3.6,14,0.00,,,0.00,WUHU216HW,2013-01-04 21:48:00,
2013-01-04 13:53:00,45.7,-4.9,30.16,ESE,113,2.9,3.1,12,0.00,,,0.00,WUHU216HW,2013-01-04 21:53:00,
2013-01-04 13:58:00,45.7,-1.9,30.16,ESE,113,1.1,3.4,14,0.00,,,0.00,WUHU216HW,2013-01-04 21:58:00,
2013-01-04 14:03:00,45.5,-2.0,30.16,East,90,2.2,3.4,14,0.00,,,0.00,WUHU216HW,2013-01-04 22:03:00,
2013-01-04 14:08:00,45.7,-3.3,30.16,East,90,0.9,2.2,13,0.00,,,0.00,WUHU216HW,2013-01-04 22:08:00,
2013-01-04 14:13:00,45.7,-4.9,30.16,East,90,0.2,2.2,12,0.00,,,0.00,WUHU216HW,2013-01-04 22:13:00,
2013-01-04 14:18:00,45.7,-3.3,30.16,SE,135,0.4,2.9,13,0.00,,,0.00,WUHU216HW,2013-01-04 22:18:00,
2013-01-04 14:23:00,45.7,-1.9,30.16,SE,135,1.8,2.9,14,0.00,,,0.00,WUHU216HW,2013-01-04 22:23:00,
2013-01-04 14:28:00,45.9,-1.7,30.16,East,90,1.3,2.9,14,0.00,,,0.00,WUHU216HW,2013-01-04 22:28:00,
2013-01-04 14:33:00,45.9,-1.7,30.15,SE,135,1.1,2.9,14,0.00,,,0.00,WUHU216HW,2013-01-04 22:33:00,
2013-01-04 14:38:00,45.9,-1.7,30.16,North,0,0.9,1.8,14,0.00,,,0.00,WUHU216HW,2013-01-04 22:38:00,
2013-01-04 14:43:00,45.9,-1.7,30.16,ENE,68,1.3,2.0,14,0.00,,,0.00,WUHU216HW,2013-01-04 22:43:00,
2013-01-04 14:48:00,45.9,-1.7,30.15,East,90,2.9,2.9,14,0.00,,,0.00,WUHU216HW,2013-01-04 22:48:00,
2013-01-04 14:53:00,45.9,-1.7,30.16,East,90,1.8,3.4,14,0.00,,,0.00,WUHU216HW,2013-01-04 22:53:00,
2013-01-04 14:58:00,45.7,-1.9,30.16,East,90,2.5,3.4,14,0.00,,,0.00,WUHU216HW,2013-01-04 22:58:00,
2013-01-04 15:03:00,45.5,-2.0,30.16,East,90,1.1,2.9,14,0.00,,,0.00,WUHU216HW,2013-01-04 23:03:00,
2013-01-04 15:08:00,45.4,-2.2,30.16,ENE,68,0.7,2.9,14,0.00,,,0.00,WUHU216HW,2013-01-04 23:08:00,
2013-01-04 15:13:00,45.2,-2.3,30.16,East,90,1.3,2.9,14,0.00,,,0.00,WUHU216HW,2013-01-04 23:13:00,
2013-01-04 15:18:00,45.0,-1.0,30.16,ENE,68,3.4,3.4,15,0.00,,,0.00,WUHU216HW,2013-01-04 23:18:00,
2013-01-04 15:23:00,44.8,-1.1,30.16,ESE,113,1.1,3.4,15,0.01,,,0.00,WUHU216HW,2013-01-04 23:23:00,
2013-01-04 15:28:00,44.6,-1.3,30.16,ESE,113,1.1,3.4,15,0.01,,,0.00,WUHU216HW,2013-01-04 23:28:00,
2013-01-04 15:33:00,44.3,-1.5,30.16,East,90,1.8,2.5,15,0.01,,,0.00,WUHU216HW,2013-01-04 23:33:00,
2013-01-04 15:38:00,44.1,-1.7,30.16,ENE,68,1.3,3.4,15,0.01,,,0.00,WUHU216HW,2013-01-04 23:38:00,
2013-01-04 15:43:00,43.7,-2.0,30.16,East,90,0.9,3.4,15,0.01,,,0.00,WUHU216HW,2013-01-04 23:43:00,
2013-01-04 15:48:00,43.6,-0.7,30.16,East,90,0.9,1.6,16,0.01,,,0.00,WUHU216HW,2013-01-04 23:48:00,
2013-01-04 15:53:00,43.2,0.5,30.16,ESE,113,0.7,1.3,17,0.01,,,0.00,WUHU216HW,2013-01-04 23:53:00,
2013-01-04 15:58:00,42.8,0.1,30.16,SSE,158,0.0,1.3,17,0.01,,,0.00,WUHU216HW,2013-01-04 23:58:00,
2013-01-04 16:03:00,42.7,0.0,30.16,SSE,158,0.4,1.3,17,0.01,,,0.00,WUHU216HW,2013-01-05 00:03:00,
2013-01-04 16:08:00,42.1,1.0,30.16,SSE,158,0.7,0.9,18,0.01,,,0.00,WUHU216HW,2013-01-05 00:08:00,
2013-01-04 16:13:00,41.9,0.9,30.16,SW,225,0.4,0.9,18,0.01,,,0.00,WUHU216HW,2013-01-05 00:13:00,
2013-01-04 16:18:00,41.6,2.1,30.16,SW,225,0.0,0.7,19,0.00,,,0.00,WUHU216HW,2013-01-05 00:18:00,
2013-01-04 16:23:00,41.2,1.8,30.16,SW,225,0.0,0.2,19,0.00,,,0.00,WUHU216HW,2013-01-05 00:23:00,
2013-01-04 16:28:00,40.7,2.7,30.16,WSW,248,0.9,1.1,20,0.00,,,0.00,WUHU216HW,2013-01-05 00:28:00,
2013-01-04 16:33:00,40.0,3.0,30.17,WSW,248,0.7,1.1,21,0.00,,,0.00,WUHU216HW,2013-01-05 00:33:00,
2013-01-04 16:38:00,39.4,2.5,30.17,WSW,248,0.0,0.9,21,0.00,,,0.00,WUHU216HW,2013-01-05 00:38:00,
2013-01-04 16:43:00,38.9,2.1,30.16,WSW,248,1.1,1.1,21,0.00,,,0.00,WUHU216HW,2013-01-05 00:43:00,
2013-01-04 16:48:00,38.3,2.5,30.16,West,270,1.1,1.1,22,0.00,,,0.00,WUHU216HW,2013-01-05 00:48:00,
2013-01-04 16:53:00,37.6,1.9,30.16,WSW,248,1.1,1.3,22,0.00,,,0.00,WUHU216HW,2013-01-05 00:53:00,
2013-01-04 16:58:00,36.9,2.2,30.16,WSW,248,0.7,1.3,23,0.00,,,0.00,WUHU216HW,2013-01-05 00:58:00,
2013-01-04 17:03:00,36.2,1.6,30.16,West,270,0.7,1.1,23,0.00,,,0.00,WUHU216HW,2013-01-05 01:03:00,
2013-01-04 17:08:00,35.5,1.9,30.17,WSW,248,0.7,1.3,24,0.00,,,0.00,WUHU216HW,2013-01-05 01:08:00,
2013-01-04 17:13:00,34.9,1.5,30.17,WSW,248,0.7,1.3,24,0.00,,,0.00,WUHU216HW,2013-01-05 01:13:00,
2013-01-04 17:18:00,34.2,0.8,30.16,WSW,248,0.4,1.3,24,0.00,,,0.00,WUHU216HW,2013-01-05 01:18:00,
2013-01-04 17:23:00,33.8,0.5,30.17,West,270,0.7,1.3,24,0.00,,,0.00,WUHU216HW,2013-01-05 01:23:00,
2013-01-04 17:28:00,33.3,0.9,30.17,West,270,0.9,1.3,25,0.00,,,0.00,WUHU216HW,2013-01-05 01:28:00,
2013-01-04 17:33:00,32.8,1.3,30.17,WSW,248,1.1,1.1,26,0.00,,,0.00,WUHU216HW,2013-01-05 01:33:00,
2013-01-04 17:38:00,32.4,1.0,30.17,WSW,248,0.7,1.3,26,0.00,,,0.00,WUHU216HW,2013-01-05 01:38:00,
2013-01-04 17:43:00,32.0,0.7,30.17,WSW,248,1.6,1.6,26,0.00,,,0.00,WUHU216HW,2013-01-05 01:43:00,
2013-01-04 17:48:00,31.9,0.6,30.17,WSW,248,1.1,2.2,26,0.00,,,0.00,WUHU216HW,2013-01-05 01:48:00,
2013-01-04 17:53:00,31.5,1.1,30.17,WSW,248,1.8,2.2,27,0.00,,,0.00,WUHU216HW,2013-01-05 01:53:00,
2013-01-04 17:58:00,31.1,0.7,30.18,WSW,248,1.1,2.0,27,0.00,,,0.00,WUHU216HW,2013-01-05 01:58:00,
2013-01-04 18:03:00,30.8,0.5,30.18,WSW,248,0.9,2.0,27,0.00,,,0.00,WUHU216HW,2013-01-05 02:03:00,
2013-01-04 18:08:00,30.6,0.3,30.18,WSW,248,1.1,1.6,27,0.00,,,0.00,WUHU216HW,2013-01-05 02:08:00,
2013-01-04 18:13:00,30.4,0.1,30.18,WSW,248,0.9,1.6,27,0.00,,,0.00,WUHU216HW,2013-01-05 02:13:00,
2013-01-04 18:18:00,30.2,-0.1,30.18,WSW,248,1.1,1.6,27,0.00,,,0.00,WUHU216HW,2013-01-05 02:18:00,
2013-01-04 18:23:00,30.1,-0.3,30.18,WSW,248,0.9,1.6,27,0.00,,,0.00,WUHU216HW,2013-01-05 02:23:00,
2013-01-04 18:28:00,29.9,-0.3,30.18,WSW,248,0.4,1.1,27,0.00,,,0.00,WUHU216HW,2013-01-05 02:28:00,
2013-01-04 18:33:00,29.9,-0.3,30.18,WSW,248,0.7,1.1,27,0.00,,,0.00,WUHU216HW,2013-01-05 02:33:00,
2013-01-04 18:38:00,29.7,-0.5,30.18,West,270,1.1,1.3,27,0.00,,,0.00,WUHU216HW,2013-01-05 02:38:00,
2013-01-04 18:43:00,29.5,-0.7,30.19,WSW,248,1.8,2.0,27,0.00,,,0.00,WUHU216HW,2013-01-05 02:43:00,
2013-01-04 18:48:00,29.2,-0.2,30.18,WSW,248,1.8,2.0,28,0.00,,,0.00,WUHU216HW,2013-01-05 02:48:00,
2013-01-04 18:53:00,29.2,-0.2,30.19,WSW,248,1.6,1.8,28,0.00,,,0.00,WUHU216HW,2013-01-05 02:53:00,
2013-01-04 18:58:00,28.8,-0.4,30.18,WSW,248,1.8,1.8,28,0.00,,,0.00,WUHU216HW,2013-01-05 02:58:00,
2013-01-04 19:03:00,28.6,-0.6,30.18,SW,225,1.8,2.0,28,0.00,,,0.00,WUHU216HW,2013-01-05 03:03:00,
2013-01-04 19:08:00,28.4,-0.8,30.19,WSW,248,1.1,2.0,28,0.00,,,0.00,WUHU216HW,2013-01-05 03:08:00,
2013-01-04 19:13:00,28.3,-1.0,30.19,WSW,248,1.1,2.0,28,0.00,,,0.00,WUHU216HW,2013-01-05 03:13:00,
2013-01-04 19:18:00,28.1,-1.1,30.19,WSW,248,1.1,1.3,28,0.00,,,0.00,WUHU216HW,2013-01-05 03:18:00,
2013-01-04 19:23:00,28.1,-1.1,30.19,WSW,248,0.7,1.3,28,0.00,,,0.00,WUHU216HW,2013-01-05 03:23:00,
2013-01-04 19:28:00,27.9,-1.2,30.19,West,270,1.1,1.3,28,0.00,,,0.00,WUHU216HW,2013-01-05 03:28:00,
2013-01-04 19:33:00,27.9,-0.4,30.19,WSW,248,1.1,1.3,29,0.00,,,0.00,WUHU216HW,2013-01-05 03:33:00,
2013-01-04 19:38:00,27.9,-0.4,30.19,WSW,248,1.6,1.8,29,0.00,,,0.00,WUHU216HW,2013-01-05 03:38:00,
2013-01-04 19:43:00,27.7,-0.6,30.19,WSW,248,1.6,1.8,29,0.00,,,0.00,WUHU216HW,2013-01-05 03:43:00,
2013-01-04 19:48:00,27.5,-0.7,30.19,WSW,248,0.4,1.6,29,0.00,,,0.00,WUHU216HW,2013-01-05 03:48:00,
2013-01-04 19:53:00,27.5,-0.7,30.19,West,270,0.7,1.6,29,0.00,,,0.00,WUHU216HW,2013-01-05 03:53:00,
2013-01-04 19:58:00,27.4,-0.9,30.19,WSW,248,1.8,2.2,29,0.00,,,0.00,WUHU216HW,2013-01-05 03:58:00,
2013-01-04 20:03:00,27.4,-0.9,30.19,WSW,248,1.3,2.2,29,0.00,,,0.00,WUHU216HW,2013-01-05 04:03:00,
2013-01-04 20:08:00,27.2,-1.1,30.19,WSW,248,1.8,2.0,29,0.00,,,0.00,WUHU216HW,2013-01-05 04:08:00,
2013-01-04 20:13:00,27.0,-1.3,30.19,WSW,248,1.8,2.0,29,0.00,,,0.00,WUHU216HW,2013-01-05 04:13:00,
2013-01-04 20:18:00,27.0,-0.3,30.19,WSW,248,1.6,2.0,30,0.00,,,0.00,WUHU216HW,2013-01-05 04:18:00,
2013-01-04 20:23:00,26.8,-1.3,30.19,WSW,248,1.3,2.0,29,0.00,,,0.00,WUHU216HW,2013-01-05 04:23:00,
2013-01-04 20:28:00,26.8,-1.3,30.19,WSW,248,1.8,1.8,29,0.00,,,0.00,WUHU216HW,2013-01-05 04:28:00,
2013-01-04 20:33:00,26.6,-1.5,30.19,WSW,248,1.3,2.0,29,0.00,,,0.00,WUHU216HW,2013-01-05 04:33:00,
2013-01-04 20:38:00,26.6,-1.5,30.19,WSW,248,1.8,2.0,29,0.00,,,0.00,WUHU216HW,2013-01-05 04:38:00,
2013-01-04 20:43:00,26.6,-1.5,30.19,WSW,248,2.5,2.5,29,0.00,,,0.00,WUHU216HW,2013-01-05 04:43:00,
2013-01-04 20:48:00,26.6,-1.5,30.19,WSW,248,1.8,2.5,29,0.00,,,0.00,WUHU216HW,2013-01-05 04:48:00,
2013-01-04 20:53:00,26.5,-1.7,30.19,WSW,248,1.6,2.5,29,0.00,,,0.00,WUHU216HW,2013-01-05 04:53:00,
2013-01-04 20:58:00,26.5,-1.7,30.20,WSW,248,1.1,2.5,29,0.00,,,0.00,WUHU216HW,2013-01-05 04:58:00,
2013-01-04 21:00:00,26.3,-1.8,30.20,WSW,248,0.9,2.5,29,0.00,,,0.00,WUHU216HW,2013-01-05 05:00:00,
2013-01-04 21:02:00,26.3,-2.7,30.20,WSW,248,1.8,2.5,28,0.00,,,0.00,WUHU216HW,2013-01-05 05:02:00,
2013-01-04 21:07:00,26.3,-2.7,30.20,WSW,248,1.6,1.8,28,0.00,,,0.00,WUHU216HW,2013-01-05 05:07:00,
2013-01-04 21:12:00,26.1,-2.8,30.20,WSW,248,1.8,1.8,28,0.00,,,0.00,WUHU216HW,2013-01-05 05:12:00,
2013-01-04 21:17:00,26.1,-2.8,30.20,WSW,248,1.3,1.8,28,0.00,,,0.00,WUHU216HW,2013-01-05 05:17:00,
2013-01-04 21:22:00,26.1,-2.8,30.20,WSW,248,1.1,1.8,28,0.00,,,0.00,WUHU216HW,2013-01-05 05:22:00,
2013-01-04 21:27:00,26.3,-2.7,30.20,WSW,248,1.3,1.6,28,0.00,,,0.00,WUHU216HW,2013-01-05 05:27:00,
2013-01-04 21:32:00,26.3,-2.7,30.20,WSW,248,2.2,2.2,28,0.00,,,0.00,WUHU216HW,2013-01-05 05:32:00,
2013-01-04 21:37:00,26.3,-2.7,30.20,WSW,248,1.6,2.2,28,0.00,,,0.00,WUHU216HW,2013-01-05 05:37:00,
2013-01-04 21:42:00,26.1,-2.8,30.20,WSW,248,1.6,2.2,28,0.00,,,0.00,WUHU216HW,2013-01-05 05:42:00,
2013-01-04 21:47:00,26.1,-2.8,30.20,WSW,248,2.2,2.2,28,0.00,,,0.00,WUHU216HW,2013-01-05 05:47:00,
2013-01-04 21:52:00,25.9,-3.0,30.20,West,270,0.7,2.2,28,0.00,,,0.00,WUHU216HW,2013-01-05 05:52:00,
2013-01-04 21:57:00,25.9,-3.0,30.20,West,270,0.7,1.8,28,0.00,,,0.00,WUHU216HW,2013-01-05 05:57:00,
2013-01-04 22:02:00,25.9,-3.0,30.20,WSW,248,1.1,1.3,28,0.00,,,0.00,WUHU216HW,2013-01-05 06:02:00,
2013-01-04 22:07:00,25.9,-3.0,30.20,WSW,248,1.1,1.3,28,0.00,,,0.00,WUHU216HW,2013-01-05 06:07:00,
2013-01-04 22:12:00,25.9,-3.0,30.20,WSW,248,1.1,2.5,28,0.00,,,0.00,WUHU216HW,2013-01-05 06:12:00,
2013-01-04 22:17:00,25.9,-3.0,30.20,WSW,248,1.1,2.5,28,0.00,,,0.00,WUHU216HW,2013-01-05 06:17:00,
2013-01-04 22:22:00,25.9,-3.0,30.20,WSW,248,1.1,1.6,28,0.00,,,0.00,WUHU216HW,2013-01-05 06:22:00,
2013-01-04 22:27:00,25.9,-3.0,30.20,WSW,248,1.1,1.6,28,0.00,,,0.00,WUHU216HW,2013-01-05 06:27:00,
2013-01-04 22:32:00,25.9,-3.0,30.20,WSW,248,0.4,1.6,28,0.00,,,0.00,WUHU216HW,2013-01-05 06:32:00,
2013-01-04 22:37:00,25.9,-3.0,30.20,WSW,248,1.3,1.3,28,0.00,,,0.00,WUHU216HW,2013-01-05 06:37:00,
2013-01-04 22:42:00,25.7,-3.1,30.20,WSW,248,1.3,1.8,28,0.00,,,0.00,WUHU216HW,2013-01-05 06:42:00,
2013-01-04 22:47:00,25.6,-3.2,30.20,WSW,248,2.7,2.7,28,0.00,,,0.00,WUHU216HW,2013-01-05 06:47:00,
2013-01-04 22:52:00,25.6,-2.4,30.20,WSW,248,2.2,2.7,29,0.00,,,0.00,WUHU216HW,2013-01-05 06:52:00,
2013-01-04 22:57:00,25.6,-2.4,30.20,WSW,248,2.5,2.7,29,0.00,,,0.00,WUHU216HW,2013-01-05 06:57:00,
2013-01-04 23:02:00,25.6,-2.4,30.20,WSW,248,1.8,2.5,29,0.00,,,0.00,WUHU216HW,2013-01-05 07:02:00,
2013-01-04 23:07:00,25.6,-2.4,30.20,WSW,248,1.1,2.5,29,0.00,,,0.00,WUHU216HW,2013-01-05 07:07:00,
2013-01-04 23:12:00,25.6,-2.4,30.20,WSW,248,0.7,1.8,29,0.00,,,0.00,WUHU216HW,2013-01-05 07:12:00,
2013-01-04 23:17:00,25.6,-2.4,30.20,WSW,248,0.9,1.6,29,0.00,,,0.00,WUHU216HW,2013-01-05 07:17:00,
2013-01-04 23:22:00,25.7,-2.2,30.20,WSW,248,1.1,1.3,29,0.00,,,0.00,WUHU216HW,2013-01-05 07:22:00,
2013-01-04 23:27:00,25.7,-2.2,30.20,WSW,248,1.8,1.8,29,0.00,,,0.00,WUHU216HW,2013-01-05 07:27:00,
2013-01-04 23:32:00,25.6,-2.4,30.20,WSW,248,1.8,1.8,29,0.00,,,0.00,WUHU216HW,2013-01-05 07:32:00,
2013-01-04 23:37:00,25.6,-1.6,30.20,WSW,248,1.8,2.0,30,0.00,,,0.00,WUHU216HW,2013-01-05 07:37:00,
2013-01-04 23:42:00,25.6,-1.6,30.20,WSW,248,1.1,2.0,30,0.00,,,0.00,WUHU216HW,2013-01-05 07:42:00,
2013-01-04 23:47:00,25.6,-1.6,30.20,SW,225,1.3,2.0,30,0.00,,,0.00,WUHU216HW,2013-01-05 07:47:00,
2013-01-04 23:52:00,25.6,-1.6,30.20,WSW,248,1.6,1.8,30,0.00,,,0.00,WUHU216HW,2013-01-05 07:52:00,
2013-01-04 23:57:00,25.4,-1.7,30.20,WSW,248,1.3,2.0,30,0.00,,,0.00,WUHU216HW,2013-01-05 07:57:00,